Location: Musselshell
(46.5176°N, 108.0911°W)
Time: 11:28:52
(UTC+00:00)

EO-88 - Pass Details

Date: 27 June 2022
Orbit: 453 x 462 km, 97.3° (Epoch: 10 August)

Event Time Altitude Azimuth Distance (km) Brightness Sun altitude
Exits shadow 03:40:35 - 125° (SE) 1,935 ? -5.0°
Reaches altitude 10° 03:41:28 10° 117° (ESE) 1,630 ? -5.1°
Maximum altitude 03:44:08 21° 67° (ENE) 1,123 ? -5.4°
Drops below altitude 10° 03:46:48 10° 18° (NNE) 1,640 ? -5.8°
Sets 03:49:13 0° 1° (N) 2,522 ? -6.1°
